Weather History for KLXV - October, 2013

Change the Weather History Date:

Saturday, October 5, 2013

  Actual Average Record
Temperature  
Mean Temperature 28 °F -  
Max Temperature 38 °F 54 °F 69 °F (1997)
Min Temperature 17 °F 26 °F 17 °F (2013)
Degree Days  
Heating Degree Days 37 25  
Month to date heating degree days 131 122  
Since 1 July heating degree days 1213 1420  
Cooling Degree Days 0 0  
Month to date cooling degree days 0 0  
Year to date cooling degree days 0 0  
Moisture  
Dew Point 11 °F    
Average Humidity 53    
Maximum Humidity 84    
Minimum Humidity 21    
Precipitation  
Precipitation T in 0.03 in 0.22 in (1984)
Month to date precipitation 0.11 0.15  
Year to date precipitation 15.33 10.18  
Sea Level Pressure  
Sea Level Pressure 30.27 in    
Wind  
Wind Speed 11 mph (NNW)    
Max Wind Speed 23 mph    
Max Gust Speed 31 mph    
Visibility 8 miles    
Events Snow    
T = Trace of Precipitation, MM = Missing Value Source: NWS Daily Summary

Daily Weather History Graph

Daily Weather History Graph

Search for Another Location

Airport or City:

Trip Planner

Search our weather history database for the weather conditions in past years. The results will help you decide how hot, cold, wet, or windy it might be!

Date:

Astronomy

Oct. 05, 2013 Rise Set
Actual Time 7:05 AM MDT 6:41 PM MDT
Civil Twilight 6:38 AM MDT 7:07 PM MDT
Nautical Twilight 6:07 AM MDT 7:38 PM MDT
Astronomical Twilight 5:36 AM MDT 8:09 PM MDT
Moon 7:47 AM MDT (10/5) 7:02 PM MDT (10/5)
Length of Visible Light 12h 29m
Length of Day
11h 35m
New Moon, 1% of the Moon is Illuminated
Oct 5
New Moon
Oct 11
First Quarter
Oct 18
Full
Oct 26
Last Quarter
Nov 3
New

Hourly Weather History & Observations

Time (MDT) Temp. Windchill Dew Point Humidity Pressure Visibility Wind Dir Wind Speed Gust Speed Precip Events Conditions
12:24 AM 19.4 °F 10.4 °F 12.2 °F 74% 30.23 in 10.0 mi NNW 6.9 mph - N/A   Overcast
12:53 AM 18.0 °F 8.7 °F 12.0 °F 78% 30.17 in 8.0 mi NNW 6.9 mph - 0.00 in Snow Light Snow
1:05 AM 17.6 °F 7.3 °F 12.2 °F 79% 30.23 in 8.0 mi North 8.1 mph - 0.00 in   Overcast
1:50 AM 17.6 °F 6.4 °F 12.2 °F 79% 30.24 in 7.0 mi NNW 9.2 mph - 0.00 in Snow Light Snow
1:53 AM 18.0 °F 7.7 °F 12.0 °F 78% 30.16 in 7.0 mi NNW 8.1 mph - 0.00 in Snow Light Snow
2:05 AM 17.6 °F 5.7 °F 12.2 °F 79% 30.25 in 8.0 mi NNW 10.4 mph - 0.00 in   Overcast
2:48 AM 17.6 °F 4.3 °F 12.2 °F 79% 30.25 in 4.0 mi North 12.7 mph - 0.00 in Snow Light Snow
2:53 AM 18.0 °F 4.8 °F 12.0 °F 78% 30.17 in 3.0 mi North 12.7 mph - 0.00 in Snow Light Snow
3:03 AM 17.6 °F 6.4 °F 12.2 °F 79% 30.25 in 2.5 mi NNW 9.2 mph - 0.00 in Snow Light Snow
3:13 AM 17.6 °F 9.3 °F 12.2 °F 79% 30.25 in 3.0 mi NNW 5.8 mph - 0.00 in Snow Light Snow
3:30 AM 17.6 °F 5.7 °F 12.2 °F 79% 30.25 in 2.5 mi North 10.4 mph - 0.00 in Snow Light Snow
3:45 AM 17.6 °F 7.3 °F 12.2 °F 79% 30.25 in 4.0 mi North 8.1 mph - 0.00 in Snow Light Snow
3:53 AM 18.0 °F 7.7 °F 12.9 °F 81% 30.17 in 5.0 mi North 8.1 mph - 0.00 in Snow Light Snow
4:53 AM 18.0 °F 11.1 °F 12.9 °F 81% 30.22 in 8.0 mi NNW 4.6 mph - 0.00 in   Overcast
5:21 AM 17.6 °F 12.3 °F 12.2 °F 79% 30.27 in 3.0 mi North 3.5 mph - 0.00 in Snow Light Snow
5:53 AM 17.1 °F 7.6 °F 14.0 °F 88% 30.24 in 4.0 mi North 6.9 mph - 0.00 in   Overcast
6:44 AM 17.6 °F 9.3 °F 12.2 °F 79% 30.29 in 4.0 mi NNW 5.8 mph - 0.00 in Snow Light Snow
6:53 AM 18.0 °F 9.8 °F 12.9 °F 81% 30.26 in 4.0 mi NNW 5.8 mph - 0.00 in Snow Light Snow
7:53 AM 19.0 °F 10.0 °F 12.9 °F 77% 30.28 in 3.0 mi North 6.9 mph - 0.00 in Snow Light Snow
8:53 AM 19.9 °F 8.6 °F 12.0 °F 71% 30.33 in 10.0 mi NNW 10.4 mph - 0.00 in   Overcast
9:07 AM 21.2 °F 10.1 °F 12.2 °F 68% 30.35 in 10.0 mi NNW 10.4 mph - N/A   Overcast
9:37 AM 24.8 °F 11.9 °F 10.4 °F 54% 30.36 in 10.0 mi North 16.1 mph 20.7 mph N/A   Scattered Clouds
9:53 AM 24.1 °F 14.4 °F 10.0 °F 55% 30.32 in 10.0 mi North 9.2 mph - N/A   Clear
10:53 AM 28.0 °F 14.3 °F 6.1 °F 39% 30.30 in 10.0 mi North 21.9 mph 26.5 mph N/A   Clear
11:53 AM 30.0 °F 19.5 °F 8.1 °F 40% 30.27 in 10.0 mi North 13.8 mph 21.9 mph N/A   Clear
12:53 PM 34.0 °F 26.6 °F 9.0 °F 35% 30.26 in 10.0 mi North 9.2 mph 25.3 mph N/A   Clear
1:53 PM 36.0 °F 25.0 °F 3.9 °F 26% 30.23 in 10.0 mi North 20.7 mph 27.6 mph N/A   Clear
2:53 PM 37.0 °F 26.2 °F 1.9 °F 23% 30.22 in 10.0 mi North 21.9 mph 27.6 mph N/A   Clear
3:53 PM 37.0 °F 29.3 °F 1.0 °F 22% 30.24 in 10.0 mi North 11.5 mph 21.9 mph N/A   Clear
4:53 PM 37.0 °F 28.5 °F 3.0 °F 24% 30.24 in 10.0 mi North 13.8 mph - N/A   Clear
5:53 PM 35.1 °F 26.4 °F 6.1 °F 30% 30.29 in 10.0 mi NNW 12.7 mph 19.6 mph N/A   Clear
6:53 PM 28.9 °F 20.4 °F 10.0 °F 45% 30.35 in 10.0 mi NW 9.2 mph - N/A   Clear
7:53 PM 27.0 °F 19.5 °F 12.0 °F 53% 30.37 in 10.0 mi NNW 6.9 mph - N/A   Clear
8:53 PM 26.1 °F 16.2 °F 14.0 °F 60% 30.39 in 10.0 mi NNW 10.4 mph - N/A   Clear
9:53 PM 25.0 °F 14.2 °F 16.0 °F 69% 30.37 in 10.0 mi NNW 11.5 mph 19.6 mph N/A   Clear
10:53 PM 24.1 °F 12.0 °F 17.1 °F 75% 30.35 in 10.0 mi NNW 13.8 mph 20.7 mph N/A   Clear
11:53 PM 24.1 °F 12.5 °F 18.0 °F 77% 30.35 in 10.0 mi North 12.7 mph - N/A   Clear